FW4719 Weather Reports


time (UTC)temp
C
wind
direction
speed
KPH
gust
KPH
rain 1hr
cm
rain 24hr
cm
rain mn
cm
humidity
%
barometer
mb
20260507203054 10 76 4.8 17.7 0.00 0.00 0.00 77 1012.4
20260507201609 10 23 4.8 14.5 0.00 0.00 0.00 76 1012.3
20260507200105 10 80 4.8 12.9 0.00 0.00 0.00 76 1012.1
20260507194605 10 79 4.8 14.5 0.00 0.00 0.00 74 1012.0
20260507193104 10 114 3.2 12.9 0.00 0.00 0.00 74 1012.0
20260507191600 11 0 1.6 12.9 0.00 0.00 0.00 73 1011.9
20260507190106 11 83 1.6 6.4 0.00 0.00 0.00 72 1011.8
20260507184609 11 59 0.0 4.8 0.00 0.00 0.00 70 1011.9
20260507183107 11 59 0.0 11.3 0.00 0.00 0.00 69 1011.8
20260507181601 11 135 3.2 9.7 0.00 0.00 0.00 68 1011.8
20260507180107 11 0 1.6 11.3 0.00 0.00 0.00 66 1011.7
20260507174553 12 107 3.2 12.9 0.00 0.00 0.00 65 1011.8
20260507173057 12 105 4.8 14.5 0.00 0.00 0.00 65 1011.9
20260507171602 12 0 0.0 17.7 0.00 0.00 0.00 65 1011.8
20260507170058 12 105 4.8 17.7 0.00 0.00 0.00 65 1011.8
20260507164554 12 91 4.8 12.9 0.00 0.00 0.00 66 1011.9
20260507163054 12 84 3.2 11.3 0.00 0.00 0.00 67 1011.9
20260507161600 11 148 1.6 11.3 0.00 0.00 0.00 68 1011.9
20260507160100 11 90 1.6 8.0 0.00 0.00 0.00 67 1012.1
20260507154555 11 122 1.6 14.5 0.00 0.03 0.00 67 1012.1
20260507153058 12 132 1.6 11.3 0.00 0.03 0.00 67 1012.2
20260507151551 12 153 4.8 12.9 0.00 0.03 0.00 66 1012.2
20260507150057 12 0 1.6 9.7 0.00 0.03 0.00 68 1012.2
20260507144556 12 159 3.2 12.9 0.00 0.10 0.00 68 1012.3
20260507143105 12 221 3.2 12.9 0.00 0.10 0.00 67 1012.4
20260507141556 13 156 3.2 14.5 0.00 0.10 0.00 68 1012.5
20260507140105 13 171 6.4 12.9 0.00 0.10 0.00 69 1012.6
20260507134553 12 170 4.8 12.9 0.00 0.18 0.00 69 1012.7
20260507133058 12 201 0.0 14.5 0.00 0.18 0.00 71 1012.7
20260507131559 11 0 0.0 6.4 0.00 0.18 0.00 72 1012.7
20260507130055 11 0 0.0 8.0 0.00 0.18 0.00 72 1012.9
20260507124559 11 230 0.0 12.9 0.00 0.18 0.00 72 1013.0
20260507123054 11 0 0.0 9.7 0.00 0.18 0.00 72 1013.0
20260507121552 11 205 1.6 9.7 0.00 0.18 0.00 70 1013.1
20260507120053 11 0 1.6 12.9 0.00 0.18 0.00 72 1013.0
20260507114554 11 0 4.8 12.9 0.00 0.18 0.00 75 1013.0
20260507113054 11 149 3.2 14.5 0.00 0.18 0.00 79 1013.1
20260507111553 11 225 3.2 14.5 0.00 0.18 0.00 80 1013.1
20260507110057 11 196 4.8 14.5 0.00 0.18 0.00 80 1013.0
20260507104555 11 165 4.8 12.9 0.00 0.18 0.00 83 1013.1
20260507103055 11 167 3.2 12.9 0.00 0.18 0.00 85 1013.2
20260507101604 11 90 1.6 11.3 0.00 0.18 0.00 87 1013.2
20260507094600 10 0 1.6 9.7 0.00 0.18 0.00 89 1013.2
20260507093100 10 161 3.2 9.7 0.00 0.18 0.00 90 1013.1
20260507091603 9 0 0.0 9.7 0.00 0.18 0.00 90 1013.1
20260507090110 9 0 1.6 4.8 0.00 0.18 0.00 91 1013.1
20260507084554 9 0 1.6 12.9 0.00 0.18 0.00 90 1013.1
20260507083102 9 159 3.2 11.3 0.00 0.18 0.00 91 1013.1
20260507081558 9 119 1.6 9.7 0.00 0.18 0.00 91 1013.2
20260507080057 8 151 1.6 9.7 0.00 0.18 0.00 91 1013.0
20260507074559 8 138 3.2 12.9 0.00 0.18 0.00 91 1012.9
20260507073103 8 122 1.6 14.5 0.00 0.18 0.00 91 1012.9
20260507071600 8 0 3.2 8.0 0.00 0.18 0.00 92 1012.7
20260507070135 8 0 1.6 9.7 0.00 0.18 0.00 91 1012.5
20260507064553 8 152 1.6 8.0 0.00 0.18 0.00 92 1012.6
20260507063102 8 137 0.0 4.8 0.00 0.18 0.00 92 1012.5
20260507061552 8 145 0.0 3.2 0.00 0.18 0.00 92 1012.3
20260507060053 7 145 0.0 3.2 0.00 0.18 0.00 92 1012.3
20260507054604 7 0 0.0 3.2 0.00 0.18 0.00 91 1012.2
20260507053057 7 0 0.0 3.2 0.00 0.18 0.00 91 1012.1
20260507051555 7 0 0.0 1.6 0.00 0.18 0.00 91 1012.0
20260507050053 7 112 0.0 4.8 0.00 0.18 0.00 91 1012.1
20260507044556 6 70 0.0 4.8 0.00 0.18 0.00 91 1012.0
20260507043056 6 0 0.0 4.8 0.00 0.18 0.00 91 1012.0
20260507041554 6 98 1.6 3.2 0.00 0.18 0.00 91 1012.0
20260507040055 6 98 0.0 3.2 0.00 0.18 0.00 91 1012.0
20260507034554 6 98 0.0 3.2 0.00 0.18 0.00 91 1012.0
20260507033055 6 0 0.0 3.2 0.00 0.18 0.00 91 1011.9
20260507031555 6 0 1.6 4.8 0.00 0.18 0.00 91 1012.0
20260507030108 6 0 0.0 4.8 0.00 0.18 0.00 90 1012.0
20260507024600 7 71 0.0 6.4 0.00 0.18 0.00 91 1011.9
20260507023054 7 120 0.0 4.8 0.00 0.18 0.00 91 1011.9
20260507021615 7 83 1.6 4.8 0.00 0.18 0.00 91 1012.0
20260507014612 7 0 1.6 4.8 0.00 0.18 0.00 91 1012.0
20260507013056 6 96 1.6 6.4 0.00 0.18 0.00 91 1012.0
20260507011554 6 90 1.6 6.4 0.00 0.18 0.00 91 1011.9
20260507010105 6 77 1.6 4.8 0.00 0.18 0.00 90 1012.0
20260507004553 6 0 1.6 4.8 0.00 0.18 0.00 90 1012.0
20260507003051 6 98 1.6 6.4 0.00 0.18 0.00 91 1012.1
20260507001553 6 0 1.6 4.8 0.00 0.18 0.00 90 1012.3
20260507000051 7 135 0.0 3.2 0.00 0.18 0.00 90 1012.4
20260506234555 7 107 0.0 4.8 0.00 0.18 0.00 90 1012.5
20260506233055 7 107 0.0 4.8 0.00 0.18 0.00 91 1012.3
20260506231554 7 107 0.0 6.4 0.00 0.18 0.00 90 1012.5
20260506230103 7 151 1.6 3.2 0.00 0.18 0.00 90 1012.4
20260506224556 7 0 0.0 3.2 0.00 0.18 0.18 90 1012.5
20260506223052 7 151 1.6 4.8 0.00 0.18 0.18 90 1012.5
20260506221558 7 0 1.6 4.8 0.00 0.18 0.18 90 1012.5
20260506220056 7 151 1.6 4.8 0.00 0.18 0.18 90 1012.4
20260506214553 8 151 0.0 3.2 0.00 0.18 0.18 90 1012.4
20260506213056 8 151 0.0 4.8 0.00 0.18 0.18 90 1012.3
20260506211555 8 151 0.0 4.8 0.00 0.18 0.18 90 1012.5
20260506210054 8 0 1.6 4.8 0.00 0.18 0.18 90 1012.4
20260506204554 8 151 0.0 3.2 0.00 0.18 0.18 90 1012.3